Location: Bothwell
(42.3833°S, 147.0000°E)
Time: 15:01:48
(UTC+11:00)

ISS - Visible Passes

Search period start: 01 December 2023 00:00
Search period end: 11 December 2023 00:00
Orbit: 416 x 417 km, 51.6° (Epoch: 30 November)

Date Brightness Start Highest point End Pass type
(mag) Time Alt. Az. Time Alt. Az. Time Alt. Az.
01 Dec -3.1 02:36:09 55° SE 02:36:09 55° SE 02:38:55 10° SE visible
01 Dec -1.6 04:09:48 10° WSW 04:12:37 23° SSW 04:15:25 10° SE visible
02 Dec -1.4 01:49:16 20° ESE 01:49:16 20° ESE 01:50:29 10° ESE visible
02 Dec -2.0 03:22:08 17° WSW 03:24:02 29° SSW 03:27:05 10° SE visible
03 Dec -2.6 02:35:10 38° SW 02:35:29 39° SSW 02:38:44 10° SE visible
03 Dec -1.0 04:10:28 10° SW 04:12:55 18° S 04:15:21 10° SE visible
04 Dec -2.2 01:48:06 35° SSE 01:48:06 35° SSE 01:50:19 10° SE visible
04 Dec -1.2 03:21:35 10° WSW 03:24:12 20° S 03:26:49 10° SE visible
05 Dec -1.2 01:00:54 17° ESE 01:00:54 17° ESE 01:01:49 10° ESE visible
05 Dec -1.5 02:33:45 16° WSW 02:35:28 23° SSW 02:38:19 10° SE visible
05 Dec -0.8 04:10:41 10° SW 04:13:05 17° S 04:15:29 10° SE visible
06 Dec -2.0 01:46:25 29° SSW 01:46:43 30° SSW 01:49:48 10° SE visible
06 Dec -0.8 03:21:53 10° SW 03:24:15 17° S 03:26:37 10° SE visible
07 Dec -2.0 00:58:53 33° SSE 00:58:53 33° SSE 01:01:16 10° SE visible
07 Dec -0.9 02:32:56 10° SW 02:35:23 18° S 02:37:51 10° SE visible
07 Dec -1.0 04:10:19 10° SW 04:13:01 21° SSE 04:15:43 10° ESE visible
08 Dec -1.8 00:11:02 25° SE 00:11:02 25° SE 00:12:40 10° SE visible
08 Dec -1.1 01:43:51 10° WSW 01:46:29 20° SSW 01:49:08 10° SE visible
08 Dec -0.8 03:21:38 10° SW 03:24:08 18° S 03:26:37 10° SE visible
08 Dec -2.0 23:22:28 24° ESE 23:22:28 24° ESE 23:23:57 10° ESE visible
09 Dec -1.4 00:55:10 13° WSW 00:57:35 24° SSW 01:00:27 10° SE visible
09 Dec -0.7 02:32:48 10° SW 02:35:10 17° S 02:37:32 10° SE visible
09 Dec -1.7 04:09:31 10° SW 04:12:39 32° SSE 04:15:46 10° E visible
09 Dec -3.5 22:28:36 10° NNW 22:31:51 44° NE 22:35:07 10° ESE visible
10 Dec -1.8 00:05:34 10° W 00:08:40 31° SSW 00:11:46 10° SE visible
10 Dec -0.7 01:43:48 10° SW 01:46:09 17° S 01:48:31 10° SE visible
10 Dec -1.2 03:20:51 10° SW 03:23:44 25° SSE 03:26:37 10° ESE visible
10 Dec -2.7 21:40:18 10° NNW 21:43:09 26° NE 21:46:03 10° ESE visible
10 Dec -2.6 23:16:29 10° WNW 23:19:45 44° SSW 23:23:03 10° SE visible
